Regional Weather Roundup
Issued by NWS

Home | Current Version | Previous Version | Text Only | Print | Product List | Glossary Off
Versions: 1 2 3 4 5 6 7 8 9 10 11 12 13 14 15 16 17 18 19 20 21 22 23 24 25 26 27 28 29 30 31 32 33 34 35 36 37 38 39 40 41 42 43 44 45 46 47 48 49 50

000
ASUS43 KMKX 260711
RWRWI

WISCONSIN REGIONAL WEATHER ROUNDUP
NATIONAL WEATHER SERVICE MILWAUKEE/SULLIVAN WI
100 AM CST WED NOV 26 2014

NOTE: "FAIR" INDICATES FEW OR NO CLOUDS BELOW 12,000 FEET WITH NO
SIGNIFICANT WEATHER AND/OR OBSTRUCTIONS TO VISIBILITY.

WIZ001-002-006>008-014>016-023>028-260800-
NORTHWEST WISCONSIN

CITY           SKY/WX    TMP DP  RH WIND       PRES   REMARKS
SUPERIOR ARPT  CLOUDY    20  15  81 CALM      30.11S
ASHLAND        CLOUDY    15  13  91 CALM      30.12R
HAYWARD        CLOUDY    20  15  81 CALM      30.07S
SIREN          CLOUDY    21  17  84 E5        30.07F WCI  15
CUMBERLAND     CLOUDY    21  16  79 SE3       30.06R
RICE LAKE      CLOUDY    22  17  81 E3        30.09R
CHETEK         CLOUDY    22  17  83 CALM      30.08R
LADYSMITH      CLOUDY    21  17  85 E7        30.09S WCI  13
EAU CLAIRE     CLOUDY    22  15  75 E5        30.08F WCI  16
MENOMONIE      CLOUDY    24  17  75 E5        30.08S WCI  18
NEW RICHMOND   CLOUDY    24  17  74 E7        30.04F WCI  15
OSCEOLA        CLOUDY    25  18  77 E8        30.07F WCI  16
$$

WIZ003>005-009-010-017-018-260800-
NORTH CENTRAL WISCONSIN

CITY           SKY/WX    TMP DP  RH WIND       PRES   REMARKS
MANITOWISH WTR CLOUDY     7   5  90 CALM      30.05F
ARBOR VITAE    CLOUDY    14  11  90 CALM      30.05F
WOODRUFF       CLOUDY    14  11  90 CALM      30.05F
RHINELANDER    CLOUDY     8   6  92 E5        30.07F WCI   0
EAGLE RIVER    CLOUDY     5   1  83 CALM      30.07S
LAND O LAKES   CLEAR     -7 -12  81 CALM      30.08S
PHILLIPS       CLOUDY    16  13  90 CALM      30.07R
TOMAHAWK       CLOUDY    13  11  91 CALM      30.08F
MEDFORD        CLOUDY    19  15  84 CALM      30.07R
MERRILL        CLOUDY    11   9  90 CALM      30.10S
$$

WIZ029-030-035-036-043>047-260800-
CENTRAL WISCONSIN

CITY           SKY/WX    TMP DP  RH WIND       PRES   REMARKS
WAUSAU         CLOUDY    13  11  92 E5        30.10S WCI   5
MOSINEE        CLOUDY    14  14 100 E5        30.10F WCI   6
MARSHFIELD     CLOUDY    21  15  78 E5        30.08F WCI  15
STEVENS POINT  CLOUDY    11   9  90 CALM      30.13R
WAUPACA        CLOUDY    11   7  85 CALM      30.16S
WAUTOMA        MOCLDY     4   1  87 CALM      30.15F
WISC RAPIDS    CLOUDY    18  13  80 SE6       30.12F WCI  10
CAMP DOUGLAS   PTCLDY     9   9  99 E5        30.11F WCI   1
$$

WIZ011>013-019>022-031-037>040-048>050-260800-
NORTHEAST WISCONSIN

CITY           SKY/WX    TMP DP  RH WIND       PRES   REMARKS
ANTIGO         CLOUDY     3   1  88 CALM      30.09S
SHAWANO        CLEAR     10   7  87 CALM      30.17S
OCONTO         MOCLDY    10   9  95 CALM      30.19S VSB 1/2
STURGEON BAY   CLOUDY    21  14  73 S3        30.18S
GREEN BAY      CLEAR     11   8  88 CALM      30.18S FOG
MANITOWOC      CLOUDY    20  16  84 SW6       30.20R WCI  12
APPLETON       CLEAR     14  14 100 CALM      30.16S
CLINTONVILLE   FOG        5   3  92 CALM      30.16S VSB 1
OSHKOSH        CLEAR     12  10  92 S3        30.16S FOG
$$

WIZ032>034-041-042-053>061-260800-
SOUTHWEST WISCONSIN

CITY           SKY/WX    TMP DP  RH WIND       PRES   REMARKS
LA CROSSE      MOCLDY    19  13  77 SE6       30.11F WCI  11
SPARTA         CLOUDY    16  14  93 CALM      30.12S
VIROQUA        MOCLDY    14  12  92 SE7       30.07S WCI   4
BOSCOBEL       FAIR       8   4  83 CALM      30.13F
PRAIRIE DU CHI FAIR      17  13  86 E5        30.11F WCI  10
PLATTEVILLE    CLEAR     14  13  93 CALM      30.11F
$$

WIZ056-057-062-063-064-067-068-260800-
SOUTH CENTRAL WISCONSIN

CITY           SKY/WX    TMP DP  RH WIND       PRES   REMARKS
REEDSBURG      CLEAR      8   5  89 CALM      30.12S FOG
BARABOO/DELLS  CLEAR      8   6  90 CALM      30.12S FOG
LONE ROCK      PTCLDY     8   1  73 CALM      30.14F
MINERAL POINT  PTCLDY    16  14  93 SE5       30.09F WCI   9
MADISON        CLEAR     14  11  87 SE7       30.13F WCI   4
MIDDLETON      CLEAR      6   2  84 CALM      30.13S
WATERTOWN      CLEAR      7   6  93 CALM      30.16F
MONROE         CLEAR     12  12 100 S5        30.11F WCI   4
JANESVILLE     CLEAR     10   5  79 E5        30.15F FOG     WCI   2
$$

WIZ051-052-058>065-066-070>072-260800-
SOUTHEAST WISCONSIN

CITY           SKY/WX    TMP DP  RH WIND       PRES   REMARKS
MILWAUKEE      MOCLDY    20  14  77 W6        30.18S WCI  12
WAUKESHA       CLEAR     12  10  92 CALM      30.18S FOG
MILWAUKEE/TIMM CLOUDY    21  14  73 SW3       30.19S
RACINE         CLEAR     17  13  84 W5        30.20S WCI  10
BURLINGTON     CLEAR      7   5  92 W3        30.17F FOG
KENOSHA        CLEAR     12   9  87 W3        30.17F FOG
FOND DU LAC    CLEAR     12   8  84 S3        30.16S
SHEBOYGAN      CLOUDY    20  15  81 CALM      30.18S
WEST BEND      CLOUDY    19  16  86 CALM      30.16F
JUNEAU         CLEAR     12  11  92 SE6       30.16S WCI   3
$$

LSZ147-162-260800-
LAKE SUPERIOR

STATION/POSITION TIME  TEMP    WIND        PRES    WAVE
                       AIR SEA DIR/SP/G            HT/PER
                 (UTC) (F)     (DEG/KT/KT) (MB)    (FT/S)
DEVILS ISLAND    0700   24     220/ 10/ 12 1020.4R
PORT WING        0600   17     140/  3/  4 1019.6R
SAXON HARBOR     0600   13     190/  5/  7 1019.6R
$$

LMZ867-665-643>646-260800-
LAKE MICHIGAN

STATION/POSITION TIME  TEMP    WIND        PRES    WAVE
                       AIR SEA DIR/SP/G            HT/PER
                 (UTC) (F)     (DEG/KT/KT) (MB)    (FT/S)
CHAMBERS ISLAND  0600   22     230/  6/ 10 1021.7R
N MID LAKE BUOY  0650   29 42  260/  8/ 12 1022.1R   1/ 5
NORTHPORT PIER   0604   24     210/  3/  8 1021.7R
SISTER BAY       0513          230/  2/  5   N/A
ALGOMA LAKESHORE 0643             CALM       N/A
KEWAUNEE LAKESHO 0600   21     260/  1/  4 1021.3R
SHEBOYGAN LAKESH 0700   21 34  300/  6/  7 1023.5R
PORT WASHINGTON  0600   22     270/  5/  8 1023.0R
MILWAUKEE LAKESH 0600   21     220/  6/  8   N/A
S MID LAKE BUOY  0650   29 42  220/ 12/ 17 1022.4F   2/ 3
KENOSHA   LAKESH 0700   19     240/  4/  7 1022.0S
$$

TC  - TEMPERATURE IN CELSIUS
VSB - VISIBILITY IN STATUTE MILES
WCI - WIND CHILL INDEX
HX  - HEAT INDEX



USA.gov is the U.S. government's official web portal to all federal, state and local government web resources and services.